VSV703 UAAA-UACC

Flight info

Callsign VSV703
Flight time 1h 29m
Altitude 38000
Route ETEDA1J ETEDA W333 BANOS BANOS1D
Aircraft B738/M-SDE2E3FGHIRWXY/LB1

Departure

Time 2026-05-09 07:58
Airport Almaty International Airport (UAAA)

Arrival

Time 2026-05-09 09:28
Airport Nursultan Nazarbayev International Airport (UACC)
Time Latitude Longitude Altitude Speed Heading
2026-05-09 07:33 43.34866 77.01953 2228 ft 0 kts
2026-05-09 07:46 43.34853 77.01951 2222 ft 2 kts
2026-05-09 07:46 43.34837 77.01949 2225 ft 2 kts
2026-05-09 07:46 43.34821 77.01945 2225 ft 2 kts 16°
2026-05-09 07:46 43.34805 77.01936 2225 ft 2 kts 50°
2026-05-09 07:47 43.34801 77.01919 2226 ft 1 kts 93°
2026-05-09 07:47 43.34801 77.01917 2226 ft 0 kts 94°
2026-05-09 07:49 43.34800 77.01925 2226 ft 2 kts 95°
2026-05-09 07:49 43.34798 77.01962 2228 ft 6 kts 92°
2026-05-09 07:49 43.34796 77.02032 2228 ft 9 kts 92°
2026-05-09 07:50 43.34791 77.02133 2227 ft 12 kts 95°
2026-05-09 07:50 43.34784 77.02259 2224 ft 15 kts 94°
2026-05-09 07:50 43.34777 77.02407 2228 ft 16 kts 94°
2026-05-09 07:50 43.34770 77.02564 2226 ft 17 kts 86°
2026-05-09 07:51 43.34829 77.02706 2225 ft 18 kts 56°
2026-05-09 07:51 43.34904 77.02858 2221 ft 20 kts 56°
2026-05-09 07:51 43.34956 77.02961 2223 ft 21 kts 56°
2026-05-09 07:51 43.35039 77.03130 2225 ft 21 kts 56°
2026-05-09 07:52 43.35122 77.03295 2225 ft 21 kts 56°
2026-05-09 07:52 43.35210 77.03473 2228 ft 24 kts 56°
2026-05-09 07:52 43.35315 77.03687 2224 ft 29 kts 56°
2026-05-09 07:52 43.35438 77.03933 2221 ft 33 kts 56°
2026-05-09 07:53 43.35573 77.04204 2222 ft 36 kts 56°
2026-05-09 07:53 43.35715 77.04494 2224 ft 38 kts 56°
2026-05-09 07:53 43.35868 77.04801 2224 ft 40 kts 56°
2026-05-09 07:53 43.36026 77.05120 2221 ft 42 kts 56°
2026-05-09 07:54 43.36162 77.05396 2224 ft 31 kts 56°
2026-05-09 07:54 43.36271 77.05614 2227 ft 27 kts 56°
2026-05-09 07:54 43.36381 77.05836 2225 ft 29 kts 56°
2026-05-09 07:54 43.36497 77.06070 2222 ft 30 kts 56°
2026-05-09 07:55 43.36615 77.06310 2223 ft 30 kts 56°
2026-05-09 07:55 43.36730 77.06543 2227 ft 28 kts 56°
2026-05-09 07:55 43.36820 77.06724 2225 ft 22 kts 56°
2026-05-09 07:55 43.36907 77.06898 2227 ft 22 kts 56°
2026-05-09 07:56 43.36980 77.07043 2226 ft 12 kts 51°
2026-05-09 07:56 43.37014 77.07057 2225 ft 4 kts 335°
2026-05-09 07:56 43.37025 77.07023 2225 ft 4 kts 265°
2026-05-09 07:56 43.37007 77.06993 2225 ft 4 kts 220°
2026-05-09 07:57 43.36983 77.06974 2224 ft 4 kts 202°
2026-05-09 07:57 43.36948 77.06954 2223 ft 7 kts 205°
2026-05-09 07:57 43.36911 77.06905 2227 ft 9 kts 235°
2026-05-09 07:57 43.36903 77.06890 2226 ft 0 kts 235°
2026-05-09 07:58 43.36895 77.06875 2225 ft 15 kts 235°
2026-05-09 07:58 43.36662 77.06404 2227 ft 103 kts 236°
2026-05-09 07:58 43.36123 77.05318 2276 ft 170 kts 236°
2026-05-09 07:58 43.35418 77.03848 3023 ft 189 kts 239°
2026-05-09 07:59 43.34662 77.02360 4201 ft 191 kts 236°
2026-05-09 07:59 43.33834 77.00799 5039 ft 213 kts 234°
2026-05-09 07:59 43.32951 76.99099 5630 ft 224 kts 236°
2026-05-09 07:59 43.32020 76.97256 6128 ft 243 kts 236°
2026-05-09 08:00 43.31047 76.95328 6922 ft 252 kts 236°
2026-05-09 08:00 43.29998 76.93228 7240 ft 280 kts 236°
2026-05-09 08:00 43.28901 76.91011 8219 ft 277 kts 236°
2026-05-09 08:00 43.28030 76.88698 9381 ft 275 kts 257°
2026-05-09 08:01 43.28150 76.86077 10306 ft 284 kts 289°
2026-05-09 08:01 43.29302 76.83778 10753 ft 311 kts 317°
2026-05-09 08:01 43.31296 76.82401 10955 ft 344 kts 346°
2026-05-09 08:01 43.33740 76.82489 11470 ft 361 kts 13°
2026-05-09 08:02 43.36139 76.83595 12294 ft 366 kts 14°
2026-05-09 08:02 43.38655 76.84007 13007 ft 364 kts 352°
2026-05-09 08:02 43.41127 76.83367 13964 ft 359 kts 341°
2026-05-09 08:02 43.43506 76.82296 14677 ft 360 kts 332°
2026-05-09 08:03 43.45523 76.80303 15344 ft 356 kts 310°
2026-05-09 08:03 43.46913 76.77563 16078 ft 354 kts 294°
2026-05-09 08:03 43.47872 76.74432 16794 ft 357 kts 290°
2026-05-09 08:03 43.48771 76.71224 17458 ft 361 kts 290°
2026-05-09 08:04 43.49688 76.67983 18129 ft 365 kts 291°
2026-05-09 08:04 43.50633 76.64726 18744 ft 368 kts 291°
2026-05-09 08:04 43.51608 76.61454 19368 ft 370 kts 294°
2026-05-09 08:04 43.53069 76.58521 19938 ft 377 kts 313°
2026-05-09 08:05 43.55151 76.56285 20568 ft 383 kts 328°
2026-05-09 08:05 43.57659 76.54950 21148 ft 391 kts 342°
2026-05-09 08:05 43.60327 76.54112 21708 ft 396 kts 345°
2026-05-09 08:05 43.63038 76.53332 22228 ft 400 kts 344°
2026-05-09 08:06 43.65771 76.52508 22777 ft 403 kts 343°
2026-05-09 08:06 43.68512 76.51645 23323 ft 406 kts 343°
2026-05-09 08:06 43.71273 76.50757 23810 ft 409 kts 343°
2026-05-09 08:06 43.74048 76.49861 24259 ft 411 kts 343°
2026-05-09 08:07 43.76807 76.48971 24733 ft 412 kts 343°
2026-05-09 08:07 43.79604 76.48069 25207 ft 414 kts 343°
2026-05-09 08:07 43.82419 76.47161 25648 ft 416 kts 343°
2026-05-09 08:07 43.85248 76.46248 26095 ft 418 kts 342°
2026-05-09 08:08 43.88096 76.45329 26541 ft 420 kts 342°
2026-05-09 08:08 43.90951 76.44406 26973 ft 422 kts 342°
2026-05-09 08:08 43.93815 76.43479 27382 ft 423 kts 342°
2026-05-09 08:08 43.96689 76.42548 27798 ft 425 kts 342°
2026-05-09 08:09 43.99578 76.41611 28212 ft 427 kts 342°
2026-05-09 08:09 44.02476 76.40670 28598 ft 429 kts 342°
2026-05-09 08:09 44.05406 76.39798 28958 ft 434 kts 348°
2026-05-09 08:09 44.08439 76.39827 29295 ft 447 kts
2026-05-09 08:10 44.11465 76.41018 29679 ft 457 kts 15°
2026-05-09 08:10 44.14428 76.42646 30028 ft 460 kts 17°
2026-05-09 08:10 44.17401 76.44354 30288 ft 463 kts 17°
2026-05-09 08:10 44.20384 76.46056 30587 ft 463 kts 17°
2026-05-09 08:11 44.23372 76.47719 30984 ft 462 kts 16°
2026-05-09 08:11 44.26369 76.49356 31395 ft 460 kts 15°
2026-05-09 08:11 44.29349 76.50972 31774 ft 460 kts 15°
2026-05-09 08:11 44.32386 76.52213 32078 ft 449 kts
2026-05-09 08:12 44.38307 76.51193 32848 ft 424 kts 333°
2026-05-09 08:12 44.41027 76.49645 33266 ft 421 kts 332°
2026-05-09 08:12 44.43714 76.48033 33664 ft 419 kts 331°
2026-05-09 08:13 44.46382 76.46411 34020 ft 418 kts 331°
2026-05-09 08:13 44.49053 76.44793 34305 ft 418 kts 331°
2026-05-09 08:13 44.51737 76.43183 34572 ft 418 kts 331°
2026-05-09 08:13 44.54420 76.41587 34862 ft 418 kts 331°
2026-05-09 08:14 44.57097 76.40004 35150 ft 418 kts 332°
2026-05-09 08:14 44.59783 76.38421 35416 ft 418 kts 332°
2026-05-09 08:14 44.62463 76.36843 35681 ft 417 kts 332°
2026-05-09 08:14 44.65105 76.35288 35962 ft 417 kts 331°
2026-05-09 08:15 44.67781 76.33711 36210 ft 417 kts 331°
2026-05-09 08:15 44.70457 76.32134 36458 ft 417 kts 331°
2026-05-09 08:15 44.73130 76.30555 36731 ft 416 kts 331°
2026-05-09 08:15 44.75799 76.28978 36983 ft 416 kts 331°
2026-05-09 08:16 44.78468 76.27398 37217 ft 416 kts 331°
2026-05-09 08:16 44.81138 76.25816 37457 ft 416 kts 331°
2026-05-09 08:16 44.83801 76.24238 37718 ft 415 kts 331°
2026-05-09 08:16 44.86467 76.22656 37934 ft 415 kts 331°
2026-05-09 08:17 44.91832 76.19463 37932 ft 418 kts 331°
2026-05-09 08:17 44.97150 76.16299 37920 ft 414 kts 331°
2026-05-09 08:18 45.02442 76.13143 37925 ft 411 kts 331°
2026-05-09 08:18 45.07708 76.09992 37921 ft 409 kts 330°
2026-05-09 08:19 45.12949 76.06851 37907 ft 409 kts 330°
2026-05-09 08:19 45.18186 76.03704 37922 ft 409 kts 330°
2026-05-09 08:20 45.23403 76.00563 37918 ft 411 kts 330°
2026-05-09 08:20 45.28677 75.97383 37914 ft 413 kts 330°
2026-05-09 08:21 45.33980 75.94178 37919 ft 415 kts 330°
2026-05-09 08:21 45.39315 75.90949 37911 ft 417 kts 330°
2026-05-09 08:22 45.44674 75.87698 37911 ft 419 kts 330°
2026-05-09 08:22 45.50050 75.84431 37905 ft 421 kts 330°
2026-05-09 08:23 45.55447 75.81144 37897 ft 421 kts 330°
2026-05-09 08:23 45.60813 75.77868 37901 ft 421 kts 330°
2026-05-09 08:24 45.66196 75.74576 37893 ft 421 kts 330°
2026-05-09 08:24 45.71572 75.71281 37896 ft 420 kts 330°
2026-05-09 08:25 45.76931 75.67992 37895 ft 419 kts 330°
2026-05-09 08:25 45.82285 75.64700 37890 ft 418 kts 330°
2026-05-09 08:26 45.87619 75.61412 37892 ft 417 kts 330°
2026-05-09 08:26 45.92914 75.58141 37891 ft 416 kts 329°
2026-05-09 08:27 45.98235 75.54848 37892 ft 416 kts 329°
2026-05-09 08:27 46.03554 75.51548 37888 ft 416 kts 329°
2026-05-09 08:28 46.08876 75.48239 37893 ft 416 kts 329°
2026-05-09 08:28 46.14201 75.44921 37888 ft 417 kts 329°
2026-05-09 08:29 46.19500 75.41613 37884 ft 418 kts 329°
2026-05-09 08:29 46.24842 75.38280 37890 ft 419 kts 329°
2026-05-09 08:30 46.30209 75.34946 37886 ft 419 kts 329°
2026-05-09 08:30 46.35577 75.31608 37886 ft 420 kts 329°
2026-05-09 08:31 46.40952 75.28255 37886 ft 421 kts 329°
2026-05-09 08:31 46.46334 75.24889 37884 ft 421 kts 329°
2026-05-09 08:32 46.51724 75.21511 37884 ft 422 kts 329°
2026-05-09 08:33 46.59785 75.16444 37883 ft 423 kts 329°
2026-05-09 08:33 46.65198 75.13032 37881 ft 423 kts 329°
2026-05-09 08:34 46.70603 75.09619 37885 ft 423 kts 329°
2026-05-09 08:34 46.75979 75.06216 37884 ft 423 kts 329°
2026-05-09 08:35 46.81385 75.02785 37888 ft 423 kts 329°
2026-05-09 08:35 46.86794 74.99347 37883 ft 424 kts 329°
2026-05-09 08:36 46.92273 74.96048 37890 ft 427 kts 332°
2026-05-09 08:36 46.97827 74.93055 37888 ft 428 kts 332°
2026-05-09 08:37 47.03425 74.90038 37885 ft 428 kts 332°
2026-05-09 08:37 47.09006 74.86976 37880 ft 428 kts 332°
2026-05-09 08:38 47.14591 74.83883 37878 ft 428 kts 331°
2026-05-09 08:38 47.20168 74.80783 37882 ft 429 kts 331°
2026-05-09 08:39 47.24811 74.78198 37877 ft 429 kts 331°
2026-05-09 08:39 47.31318 74.74568 37872 ft 430 kts 332°
2026-05-09 08:40 47.35968 74.71968 37879 ft 430 kts 331°
2026-05-09 08:40 47.41604 74.68810 37874 ft 431 kts 331°
2026-05-09 08:41 47.47179 74.65680 37875 ft 431 kts 331°
2026-05-09 08:41 47.52800 74.62517 37875 ft 432 kts 331°
2026-05-09 08:42 47.58426 74.59357 37871 ft 432 kts 332°
2026-05-09 08:42 47.64063 74.56202 37873 ft 433 kts 332°
2026-05-09 08:43 47.69694 74.53040 37872 ft 433 kts 332°
2026-05-09 08:43 47.75293 74.49887 37871 ft 433 kts 332°
2026-05-09 08:44 47.80933 74.46703 37867 ft 433 kts 332°
2026-05-09 08:44 47.86579 74.43508 37874 ft 433 kts 332°
2026-05-09 08:45 47.92216 74.40310 37867 ft 433 kts 332°
2026-05-09 08:45 47.97856 74.37103 37870 ft 433 kts 332°
2026-05-09 08:46 48.03470 74.33904 37870 ft 433 kts 332°
2026-05-09 08:46 48.09102 74.30686 37872 ft 433 kts 332°
2026-05-09 08:47 48.14736 74.27464 37862 ft 433 kts 332°
2026-05-09 08:47 48.20382 74.24268 37873 ft 434 kts 332°
2026-05-09 08:48 48.26035 74.21071 37870 ft 434 kts 332°
2026-05-09 08:48 48.31646 74.17886 37877 ft 434 kts 332°
2026-05-09 08:49 48.37293 74.14671 37880 ft 434 kts 332°
2026-05-09 08:49 48.42934 74.11449 37875 ft 434 kts 332°
2026-05-09 08:50 48.48586 74.08215 37883 ft 433 kts 332°
2026-05-09 08:50 48.54227 74.04978 37881 ft 433 kts 332°
2026-05-09 08:51 48.59866 74.01735 37881 ft 433 kts 332°
2026-05-09 08:51 48.65459 73.98510 37887 ft 433 kts 331°
2026-05-09 08:52 48.71103 73.95249 37882 ft 433 kts 331°
2026-05-09 08:52 48.76734 73.91987 37886 ft 433 kts 331°
2026-05-09 08:53 48.82366 73.88716 37885 ft 433 kts 331°
2026-05-09 08:53 48.87998 73.85438 37882 ft 433 kts 331°
2026-05-09 08:54 48.93594 73.82172 37893 ft 434 kts 331°
2026-05-09 08:54 48.99238 73.78871 37886 ft 435 kts 331°
2026-05-09 08:55 49.04887 73.75547 37888 ft 435 kts 331°
2026-05-09 08:55 49.10542 73.72208 37882 ft 436 kts 331°
2026-05-09 08:56 49.16166 73.68879 37886 ft 436 kts 331°
2026-05-09 08:56 49.21826 73.65522 37889 ft 436 kts 331°
2026-05-09 08:57 49.27493 73.62152 37887 ft 437 kts 331°
2026-05-09 08:57 49.33162 73.58772 37893 ft 438 kts 331°
2026-05-09 08:58 49.38814 73.55395 37889 ft 438 kts 330°
2026-05-09 08:58 49.44500 73.51988 37887 ft 439 kts 331°
2026-05-09 08:59 49.50194 73.48568 37886 ft 439 kts 331°
2026-05-09 08:59 49.53056 73.46844 37555 ft 445 kts 330°
2026-05-09 08:59 49.55942 73.45105 37074 ft 443 kts 330°
2026-05-09 08:59 49.58808 73.43379 36531 ft 440 kts 330°
2026-05-09 09:00 49.61660 73.41659 35953 ft 439 kts 330°
2026-05-09 09:00 49.64495 73.39946 35497 ft 435 kts 329°
2026-05-09 09:00 49.67248 73.38123 35062 ft 424 kts 323°
2026-05-09 09:00 49.69729 73.35807 34689 ft 409 kts 315°
2026-05-09 09:01 49.71874 73.33050 34335 ft 396 kts 308°
2026-05-09 09:01 49.73874 73.30167 33936 ft 391 kts 308°
2026-05-09 09:01 49.75841 73.27292 33468 ft 387 kts 307°
2026-05-09 09:01 49.77765 73.24478 33042 ft 382 kts 307°
2026-05-09 09:02 49.79689 73.21672 32634 ft 378 kts 307°
2026-05-09 09:02 49.81591 73.18907 32246 ft 373 kts 307°
2026-05-09 09:02 49.83481 73.16166 31835 ft 369 kts 306°
2026-05-09 09:02 49.85348 73.13460 31440 ft 365 kts 306°
2026-05-09 09:03 49.87194 73.10785 31056 ft 361 kts 306°
2026-05-09 09:03 49.89021 73.08135 30676 ft 357 kts 306°
2026-05-09 09:03 49.90825 73.05517 30291 ft 353 kts 305°
2026-05-09 09:03 49.92615 73.02915 29916 ft 349 kts 305°
2026-05-09 09:04 49.94380 73.00348 29499 ft 345 kts 305°
2026-05-09 09:04 49.96121 72.97814 29103 ft 341 kts 305°
2026-05-09 09:04 49.97836 72.95314 28712 ft 336 kts 304°
2026-05-09 09:04 49.99511 72.92869 28335 ft 332 kts 304°
2026-05-09 09:05 50.01188 72.90418 27945 ft 329 kts 304°
2026-05-09 09:05 50.02848 72.87989 27569 ft 326 kts 304°
2026-05-09 09:05 50.04496 72.85576 27193 ft 323 kts 304°
2026-05-09 09:05 50.06121 72.83194 26831 ft 320 kts 304°
2026-05-09 09:06 50.07740 72.80815 26463 ft 320 kts 304°
2026-05-09 09:06 50.09356 72.78440 26095 ft 319 kts 305°
2026-05-09 09:06 50.10977 72.76051 25743 ft 324 kts 305°
2026-05-09 09:06 50.12654 72.73567 25379 ft 338 kts 306°
2026-05-09 09:07 50.14356 72.71062 24973 ft 341 kts 306°
2026-05-09 09:07 50.16081 72.68529 24577 ft 339 kts 306°
2026-05-09 09:07 50.17797 72.66007 24172 ft 338 kts 306°
2026-05-09 09:07 50.19673 72.63714 23761 ft 351 kts 320°
2026-05-09 09:08 50.21845 72.61932 23377 ft 354 kts 323°
2026-05-09 09:08 50.24053 72.60234 22931 ft 353 kts 323°
2026-05-09 09:08 50.26256 72.58558 22527 ft 351 kts 323°
2026-05-09 09:08 50.28439 72.56883 22122 ft 348 kts 323°
2026-05-09 09:09 50.30610 72.55199 21746 ft 345 kts 323°
2026-05-09 09:09 50.32722 72.53546 21380 ft 342 kts 323°
2026-05-09 09:09 50.34845 72.51873 21005 ft 340 kts 323°
2026-05-09 09:09 50.36953 72.50205 20637 ft 338 kts 323°
2026-05-09 09:10 50.39043 72.48546 20263 ft 335 kts 323°
2026-05-09 09:10 50.41126 72.46890 19905 ft 333 kts 323°
2026-05-09 09:10 50.43187 72.45250 19551 ft 331 kts 323°
2026-05-09 09:10 50.45240 72.43613 19198 ft 330 kts 323°
2026-05-09 09:11 50.47255 72.42006 18838 ft 329 kts 323°
2026-05-09 09:11 50.49294 72.40378 18479 ft 328 kts 323°
2026-05-09 09:11 50.51322 72.38757 18121 ft 327 kts 324°
2026-05-09 09:11 50.53348 72.37137 17719 ft 326 kts 324°
2026-05-09 09:12 50.55363 72.35525 17329 ft 324 kts 324°
2026-05-09 09:12 50.57367 72.33920 16968 ft 322 kts 324°
2026-05-09 09:12 50.59360 72.32324 16599 ft 321 kts 324°
2026-05-09 09:12 50.61350 72.30726 16231 ft 321 kts 324°
2026-05-09 09:13 50.63347 72.29121 15860 ft 322 kts 325°
2026-05-09 09:13 50.65338 72.27519 15496 ft 321 kts 325°
2026-05-09 09:13 50.67320 72.25926 15126 ft 319 kts 326°
2026-05-09 09:13 50.69266 72.24359 14761 ft 318 kts 326°
2026-05-09 09:14 50.71228 72.22777 14411 ft 316 kts 326°
2026-05-09 09:14 50.73186 72.21197 14051 ft 315 kts 326°
2026-05-09 09:14 50.75136 72.19621 13683 ft 314 kts 326°
2026-05-09 09:14 50.77079 72.18049 13294 ft 313 kts 327°
2026-05-09 09:15 50.79021 72.16478 12910 ft 312 kts 327°
2026-05-09 09:15 50.80941 72.14923 12540 ft 310 kts 327°
2026-05-09 09:15 50.82853 72.13373 12182 ft 308 kts 327°
2026-05-09 09:15 50.84755 72.11829 11831 ft 306 kts 327°
2026-05-09 09:16 50.86648 72.10290 11486 ft 305 kts 327°
2026-05-09 09:16 50.90412 72.07227 10786 ft 303 kts 327°
2026-05-09 09:16 50.92282 72.05704 10436 ft 301 kts 327°
2026-05-09 09:17 50.94143 72.04187 10090 ft 300 kts 327°
2026-05-09 09:17 50.95999 72.02673 9763 ft 299 kts 327°
2026-05-09 09:17 50.97816 72.01192 9738 ft 287 kts 327°
2026-05-09 09:17 50.99616 71.99720 9165 ft 294 kts 327°
2026-05-09 09:18 51.01395 71.98264 8901 ft 290 kts 327°
2026-05-09 09:18 51.03185 71.96798 8571 ft 289 kts 326°
2026-05-09 09:18 51.04964 71.95341 8248 ft 287 kts 326°
2026-05-09 09:18 51.06713 71.93907 7928 ft 278 kts 326°
2026-05-09 09:19 51.08405 71.92522 7648 ft 269 kts 326°
2026-05-09 09:19 51.10065 71.91157 7388 ft 269 kts 326°
2026-05-09 09:19 51.11737 71.89778 7128 ft 273 kts 326°
2026-05-09 09:19 51.13433 71.88378 6843 ft 275 kts 326°
2026-05-09 09:20 51.14991 71.86706 6553 ft 266 kts 311°
2026-05-09 09:20 51.16288 71.84644 6302 ft 262 kts 307°
2026-05-09 09:20 51.17523 71.82585 6041 ft 260 kts 308°
2026-05-09 09:20 51.18772 71.80531 5807 ft 256 kts 308°
2026-05-09 09:21 51.19800 71.78410 5687 ft 228 kts 286°
2026-05-09 09:21 51.19995 71.76104 5569 ft 198 kts 258°
2026-05-09 09:21 51.19592 71.74149 5463 ft 177 kts 241°
2026-05-09 09:21 51.18874 71.72666 5349 ft 162 kts 227°
2026-05-09 09:22 51.18099 71.71433 5088 ft 159 kts 226°
2026-05-09 09:22 51.17296 71.70175 4769 ft 162 kts 226°
2026-05-09 09:22 51.16516 71.68957 4559 ft 154 kts 227°
2026-05-09 09:22 51.15776 71.67800 4395 ft 144 kts 227°
2026-05-09 09:23 51.15064 71.66683 4257 ft 145 kts 227°
2026-05-09 09:23 51.14348 71.65549 4113 ft 145 kts 227°
2026-05-09 09:23 51.13642 71.64419 3937 ft 141 kts 227°
2026-05-09 09:23 51.12967 71.63354 3763 ft 131 kts 227°
2026-05-09 09:24 51.12331 71.62357 3590 ft 125 kts 227°
2026-05-09 09:24 51.11711 71.61387 3422 ft 124 kts 228°
2026-05-09 09:24 51.11083 71.60404 3266 ft 127 kts 227°
2026-05-09 09:24 51.10466 71.59440 3090 ft 120 kts 227°
2026-05-09 09:25 51.09881 71.58530 2944 ft 116 kts 227°
2026-05-09 09:25 51.09300 71.57627 2805 ft 114 kts 227°
2026-05-09 09:25 51.08743 71.56757 2635 ft 112 kts 228°
2026-05-09 09:25 51.08179 71.55875 2491 ft 116 kts 228°
2026-05-09 09:26 51.07604 71.54972 2346 ft 119 kts 228°
2026-05-09 09:26 51.07007 71.54041 2189 ft 121 kts 228°
2026-05-09 09:26 51.06393 71.53113 1988 ft 124 kts 227°
2026-05-09 09:26 51.05759 71.52108 1860 ft 134 kts 229°
2026-05-09 09:27 51.05093 71.51066 1708 ft 132 kts 227°
2026-05-09 09:27 51.04438 71.50049 1496 ft 131 kts 226°
2026-05-09 09:27 51.04014 71.49382 1372 ft 129 kts 225°
2026-05-09 09:27 51.03162 71.48031 1187 ft 132 kts 225°
2026-05-09 09:28 51.02746 71.47372 1164 ft 117 kts 225°
2026-05-09 09:28 51.02125 71.46417 1164 ft 71 kts 224°
2026-05-09 09:28 51.01928 71.46107 1162 ft 47 kts 225°
2026-05-09 09:28 51.01754 71.45835 1165 ft 22 kts 224°
2026-05-09 09:29 51.01699 71.45749 1165 ft 10 kts 230°
2026-05-09 09:29 51.01690 71.45669 1165 ft 6 kts 293°
2026-05-09 09:29 51.01721 71.45615 1162 ft 9 kts 315°
2026-05-09 09:29 51.01751 71.45568 1163 ft 0 kts 314°
2026-05-09 09:30 51.01753 71.45563 1163 ft 1 kts 314°
2026-05-09 09:30 51.01758 71.45556 1163 ft 0 kts 314°
2026-05-09 09:30 51.01759 71.45555 1163 ft 0 kts 314°
2026-05-09 09:30 51.01762 71.45550 1161 ft 2 kts 314°
2026-05-09 09:31 51.01770 71.45537 1162 ft 3 kts 314°
2026-05-09 09:31 51.01793 71.45502 1162 ft 6 kts 327°
2026-05-09 09:31 51.01833 71.45500 1162 ft 5 kts 28°
2026-05-09 09:32 51.01919 71.45631 1163 ft 10 kts 45°
2026-05-09 09:32 51.01952 71.45671 1163 ft 5 kts 20°
2026-05-09 09:32 51.01988 71.45661 1162 ft 6 kts 335°
2026-05-09 09:32 51.02019 71.45613 1162 ft 7 kts 313°
2026-05-09 09:33 51.02036 71.45585 1162 ft 4 kts 317°
2026-05-09 09:33 51.02061 71.45546 1163 ft 6 kts 315°
2026-05-09 09:33 51.02076 71.45513 1161 ft 4 kts 292°
2026-05-09 09:33 51.02070 71.45473 1163 ft 4 kts 238°
2026-05-09 09:34 51.02060 71.45453 1163 ft 1 kts 227°
2026-05-09 09:34 51.02054 71.45443 1163 ft 0 kts 225°